This demonstration page uses our WeatherBlox Daily Observations layout. Learn more.

Left ArrowRight Arrow

Hourly Observations for April 10, 2021

Temp ( °F °C ) Dew Point ( °F °C ) Humidity (%) Winds ( mph kmh ) Pressure ( in mb ) Visibility ( mi km ) Precip ( " mm )
12:53 am 00:53 Clear 41 5 18 -7.8 39 39 SW 12 19 29.73 1007 10 16 0.00 0.00
1:53 am 01:53 Clear 37 2.8 18 -7.8 46 46 SSW 10 17 29.72 1007 10 16 0.00 0.00
2:53 am 02:53 Clear 34 1.1 18 -7.8 52 52 SSW 9 15 29.72 1006 10 16 0.00 0.00
3:53 am 03:53 Clear 34 1.1 18 -7.8 52 52 Calm 29.70 1006 10 16 0.00 0.00
4:53 am 04:53 Clear 36 2.2 18 -7.8 48 48 WNW 5 7 29.68 1005 10 16 0.00 0.00
5:53 am 05:53 Mostly Cloudy 37 2.8 19 -7.2 48 48 WNW 3 6 29.66 1004 10 16 0.00 0.00
6:53 am 06:53 Sunny 37 2.8 19 -7.2 48 48 WNW 7 11 29.65 1004 10 16 0.00 0.00
7:53 am 07:53 Sunny 38 3.3 22 -5.6 52 52 S 7 11 29.66 1004 10 16 0.00 0.00
8:53 am 08:53 Sunny 47 8.3 21 -6.1 36 36 SSW 6 9 29.65 1004 10 16 0.00 0.00
9:53 am 09:53 Mostly Cloudy 51 10.6 21 -6.1 31 31 WSW 10 17 29.64 1004 10 16 0.00 0.00
10:53 am 10:53 Cloudy 52 11.1 22 -5.6 31 31 W 21 33 29.64 1004 10 16 0.00 0.00
11:53 am 11:53 Mostly Cloudy 54 12.2 28 -2.2 37 37 W 31 50 29.65 1004 10 16 0.00 0.00
12:53 pm 12:53 Cloudy 53 11.7 24 -4.4 32 32 WSW 25 41 29.63 1004 10 16 0.00 0.00
1:53 pm 13:53 Mostly Sunny 55 12.8 8 -13.3 15 15 W 29 46 29.63 1003 10 16 0.00 0.00
2:53 pm 14:53 Mostly Sunny 57 13.9 10 -12.2 15 15 W 35 56 29.63 1004 10 16 0.00 0.00
3:53 pm 15:53 Partly Cloudy 51 10.6 18 -7.8 27 27 NNW 26 43 29.66 1004 10 16 0.00 0.00
4:53 pm 16:53 Cloudy 48 8.9 23 -5 37 37 NW 32 52 29.70 1006 10 16 0.00 0.00
5:53 pm 17:53 Sunny 45 7.2 23 -5 42 42 WNW 15 24 29.72 1006 10 16 0.00 0.00
6:53 pm 18:53 Sunny 47 8.3 22 -5.6 37 37 WNW 12 19 29.72 1006 10 16 0.00 0.00
7:53 pm 19:53 Mostly Sunny 42 5.6 24 -4.4 49 49 NW 20 31 29.76 1008 10 16 0.00 0.00
8:53 pm 20:53 Cloudy 40 4.4 26 -3.3 58 58 W 17 28 29.80 1009 10 16 0.00 0.00
9:53 pm 21:53 Mostly Cloudy 36 2.2 27 -2.8 70 70 WSW 8 13 29.83 1010 10 16 0.00 0.00
10:53 pm 22:53 Partly Cloudy 35 1.7 27 -2.8 72 72 SW 13 20 29.83 1010 10 16 0.00 0.00
11:53 pm 23:53 Cloudy 38 3.3 25 -3.9 60 60 WSW 15 24 29.83 1010 10 16 0.00 0.00

Powered by AerisWeather